Regional Weather Roundup
Issued by NWS Cleveland, OH

Home | Current Version | Previous Version | Text Only | Print | Product List | Glossary Off
Versions: 1 2 3 4 5 6 7 8 9 10 11 12 13 14 15 16 17 18 19 20 21 22 23 24 25 26 27 28 29 30 31 32 33 34 35 36 37 38 39 40 41 42 43 44 45 46 47 48 49 50

000
ASUS41 KCLE 150112
RWRCLE
OHIO REGIONAL WEATHER ROUNDUP
NATIONAL WEATHER SERVICE WILMINGTON, OH
800 PM EST THU DEC 14 2017

NOTE: "FAIR" INDICATES FEW OR NO CLOUDS BELOW 12,000 FEET WITH NO
SIGNIFICANT WEATHER AND/OR OBSTRUCTIONS TO VISIBILITY.

OHZ001>008-015>018-024>027-034-035-043-044-150200-
   NORTHWEST OHIO

CITY           SKY/WX    TMP DP  RH WIND       PRES   REMARKS
DEFIANCE       FAIR      12   5  73 CALM      30.09F
FINDLAY        FAIR      13   4  67 CALM      30.07F
TOLEDO EXPRESS FAIR       8   5  87 S3        30.09S
TOLEDO EXEC    FAIR       9   3  77 SW6       30.10S WCI  -1
LIMA           FAIR      17  12  80 CALM      30.07S
$$

OHZ009>014-019>023-028>033-038-089-150200-
   NORTHEAST OHIO

CITY           SKY/WX    TMP DP  RH WIND       PRES   REMARKS
CLE-HOPKINS    MOCLDY    15  11  83 SW6       30.10S WCI   6
CLE-LAKEFRONT  FAIR      19  11  70 SW13      30.08S WCI   6
CUY CO. ARPT   PTCLDY    19  12  73 W12       30.07R WCI   7
LORAIN-ELYRIA  FAIR      10   4  76 W5        30.08S WCI   2
ASHTABULA      CLOUDY    20  15  81 SW7       30.05S WCI  11
AKRON-CANTON   FAIR      16  11  80 NW7       30.04S WCI   6
WOOSTER        FAIR       7   5  91 CALM      30.06
MANSFIELD      FAIR      14  12  92 CALM      30.04S
YOUNGSTOWN     MOCLDY    16  11  80 W3        30.04R
$$

OHZ042-051>053-060>062-070>072-077>081-150200-
  SOUTHWEST OHIO

CITY           SKY/WX    TMP DP  RH WIND       PRES   REMARKS
CINC-COVINGTON CLOUDY    25  17  72 NE7       30.07S WCI  17
CINC-LUNKEN    FAIR      24  17  74 NE5       30.12R WCI  18
HAMILTON       FAIR      22  18  85 CALM      30.11R
DAYTON         CLOUDY    21  16  81 W3        30.08S
WRIGHT-PAT AFB MOCLDY    22  15  74 CALM      30.08S
DAYTON GENERAL FAIR      21  15  78 CALM      30.07S
WILMINGTON     FAIR      21  16  81 N3        30.07R
$$

OHZ036-037-039>041-045>050-054>059-063>069-073>076-082>088-150200-
  CENTRAL AND SOUTHEAST OHIO

CITY           SKY/WX    TMP DP  RH WIND       PRES   REMARKS
COLUMBUS       MOCLDY    22  16  78 N6        30.07S WCI  14
OSU AIRPORT    FAIR      21  16  81 N3        30.07S
BOLTON FIELD   NOT AVBL
RICKENBACK AFB FAIR      23  17  75 CALM      30.08S
NEWARK         FAIR      21  15  78 NW3       30.07S
MARION         NOT AVBL
LANCASTER      FAIR      20  17  88 CALM      30.07S
ZANESVILLE     MOCLDY    23  14  68 NW5       30.07R WCI  17
NEW PHILLY     FAIR      16  12  84 CALM      30.08R
$$




USA.gov is the U.S. government's official web portal to all federal, state and local government web resources and services.